Wind_Speed
5 2 2 3 6 7 7 7 8 9 11 11 11 11 6 4 7 7 1 4 8 6 2 3 3 4 5 5 5 5 4 3 2 1 2 1 1 1 1 2 3 3 3 3 3 3 3 3 4 6 8 9 11 13 15 18 21 22 20 19 18 19 19 22 26 27 26 24 23 22 23 23 24 23 22 21 20 20 20 19 19 19 18 18 18 17 16
6 5 5 5 6 7 6 8 8 8 10 11 11 11 8 6 9 8 3 5 9 5 1 3 4 4 5 6 6 5 5 3 2 2 2 2 1 1 1 1 1 2 3 3 4 4 4 4 3 3 5 8 9 11 12 14 16 19 21 21 21 20 19 20 23 26 27 26 26 25 26 26 25 24 23 22 21 21 21 21 20 20 19 19 18 18 17
7 7 6 6 7 7 7 9 8 8 10 10 10 9 7 7 8 8 7 8 8 3 5 6 6 6 7 8 8 7 5 4 3 2 2 2 2 2 1 0 2 3 4 5 5 5 5 5 4 3 4 6 7 8 10 11 12 14 17 19 20 21 20 19 20 23 26 26 26 27 27 28 27 26 24 24 23 23 22 22 22 23 23 22 20 19 18
7 8 9 8 7 7 9 10 10 10 10 10 9 8 7 8 9 9 9 9 6 4 8 8 8 8 8 9 9 8 6 5 4 3 3 2 2 2 1 1 2 4 5 6 6 7 7 6 5 5 5 5 5 7 9 9 10 11 13 15 16 17 18 19 19 22 25 27 26 27 27 28 28 27 26 25 25 25 24 23 22 23 24 24 23 22 19
6 8 9 8 7 8 9 8 9 12 12 10 9 8 7 8 9 8 8 5 0 6 8 8 8 9 9 8 8 7 6 5 5 4 3 3 2 1 1 2 3 5 6 7 7 7 7 7 6 7 8 7 6 8 10 11 11 11 12 14 16 17 17 18 19 20 23 26 27 26 27 28 28 28 27 27 26 25 24 24 22 22 22 23 24 24 21
6 6 7 6 8 9 5 1 2 7 9 9 10 9 8 7 7 7 5 0 4 6 6 7 8 9 8 7 7 6 5 5 4 4 4 3 2 1 2 3 4 6 7 7 8 8 7 8 9 9 9 8 8 9 11 11 11 12 13 14 15 16 17 16 18 19 20 23 26 27 27 27 28 28 27 27 27 25 24 24 24 23 22 21 23 24 24
6 4 6 8 10 6 2 4 3 0 3 6 8 9 8 6 7 8 6 3 4 5 4 5 8 9 7 6 6 6 6 5 4 4 4 2 1 2 3 4 5 7 7 7 8 8 9 9 8 8 8 8 9 11 13 13 12 13 14 15 14 15 16 17 18 19 19 21 25 27 27 27 28 28 28 27 27 26 26 26 25 25 23 21 22 23 24
5 5 7 10 6 2 5 5 4 3 2 5 6 8 8 8 8 8 7 5 5 6 6 7 8 8 7 5 5 6 6 6 5 4 3 1 1 2 3 5 6 6 7 7 7 9 9 8 7 8 8 8 10 13 14 14 14 14 14 15 15 15 16 18 19 21 21 21 23 26 28 28 28 28 28 28 26 25 25 25 25 26 25 22 21 22 23
6 7 9 8 4 3 5 4 4 6 6 6 6 6 5 6 8 8 8 6 7 8 8 9 8 8 6 5 6 8 7 6 6 5 2 1 2 3 4 6 6 6 8 8 7 8 8 8 7 7 8 9 10 12 12 13 14 14 14 15 14 14 16 17 18 20 22 23 24 25 27 28 29 28 28 28 27 25 24 24 24 25 25 24 22 22 22
7 9 9 8 7 8 8 7 7 9 8 6 6 6 4 5 9 10 10 9 10 11 10 10 9 7 5 4 5 9 7 5 5 4 2 1 2 3 4 5 6 7 8 7 7 7 7 8 7 7 7 9 10 10 10 11 12 14 16 15 15 15 15 16 17 18 21 24 26 26 27 27 28 28 28 29 28 26 24 24 24 24 25 25 25 24 23
8 9 9 8 9 8 7 6 7 9 8 5 4 7 5 6 11 13 11 11 12 12 12 11 9 6 5 4 4 9 6 4 4 4 2 1 2 2 4 6 7 7 7 7 7 7 7 7 7 7 7 8 9 10 10 10 11 13 15 15 14 14 14 15 16 17 19 22 25 27 28 26 26 27 28 28 27 26 25 24 24 24 23 23 25 26 26
9 9 9 8 7 4 4 7 8 9 8 7 6 7 4 6 13 15 13 13 14 13 13 13 9 5 4 2 6 8 5 4 5 4 2 1 2 3 4 7 7 7 7 7 7 7 7 7 7 7 7 8 9 10 10 10 10 10 12 13 13 14 15 17 17 17 19 21 24 26 28 28 28 27 26 26 27 26 25 23 23 24 22 20 23 26 27
10 10 10 8 7 3 7 9 10 11 9 7 8 6 2 8 13 14 14 14 15 15 15 12 7 3 2 6 8 7 5 5 5 3 2 1 1 3 5 6 6 7 7 6 7 8 7 7 8 7 8 9 10 10 10 9 10 10 10 12 13 15 17 18 20 20 20 21 23 25 27 28 29 27 25 25 26 25 24 23 23 23 22 21 23 26 27
10 9 9 9 7 3 9 10 9 11 8 7 7 2 5 10 13 13 14 14 14 15 15 10 6 4 7 7 7 6 5 4 4 3 1 0 2 4 5 6 6 7 7 7 8 8 7 7 8 9 10 10 10 10 9 9 10 11 12 14 15 15 16 18 20 21 22 21 21 23 25 27 28 27 27 27 26 25 25 25 23 22 23 24 26 27 27
9 9 9 10 7 5 15 14 8 7 7 3 3 7 7 8 12 13 12 12 13 14 13 9 6 6 7 6 6 6 5 4 4 3 1 1 3 4 5 6 7 7 7 7 8 8 7 8 8 10 11 12 11 10 10 10 11 11 12 15 16 15 14 16 18 19 21 21 20 21 23 25 26 28 29 29 28 27 26 25 24 23 24 26 27 28 28
6 7 6 5 3 4 18 15 4 8 9 1 3 8 7 8 12 12 10 11 13 12 10 9 8 7 7 6 5 5 4 4 3 2 1 2 4 4 5 6 7 6 7 7 8 7 7 8 9 10 12 11 11 11 11 11 11 10 10 11 13 12 11 12 13 14 16 17 18 21 23 23 25 28 28 28 28 28 27 26 26 26 25 26 28 29 29
3 5 3 1 4 2 14 11 2 3 10 2 1 6 8 9 12 11 9 11 12 10 9 9 8 7 6 6 5 5 5 4 3 2 2 3 4 4 5 5 5 5 6 7 7 7 8 8 9 10 11 11 11 11 12 12 12 11 10 9 9 9 9 9 9 10 10 11 14 19 22 23 24 27 26 26 28 29 28 28 28 27 27 28 30 31 31
4 5 4 3 4 2 9 10 1 1 6 4 1 4 8 10 11 10 10 11 12 11 10 9 8 7 7 6 6 5 5 4 3 2 3 3 3 3 4 5 5 5 6 7 7 7 7 9 9 9 9 10 10 11 11 11 11 10 9 8 7 7 7 8 8 8 8 10 14 17 19 20 22 24 25 27 29 29 28 29 30 29 29 31 32 31 30
3 2 1 3 4 5 4 8 6 3 5 6 4 3 7 11 12 10 10 11 12 11 10 8 7 7 7 6 6 6 5 5 4 4 4 4 4 3 3 4 4 4 5 5 6 6 7 8 9 8 8 9 9 10 11 11 10 9 7 5 4 4 5 8 10 9 9 11 13 16 18 19 20 22 24 26 27 27 28 30 32 32 32 33 33 32 30
6 4 5 9 10 7 5 7 8 5 5 8 7 6 9 12 12 11 11 12 11 10 9 8 7 7 7 6 6 6 6 5 4 5 5 4 4 3 3 3 3 3 4 4 5 6 6 8 8 7 8 9 10 11 12 13 12 10 9 7 5 4 4 7 9 11 11 12 13 14 17 19 22 24 25 25 25 25 28 31 32 32 33 33 33 33 32
8 8 6 10 11 9 6 5 6 6 5 7 9 10 11 13 14 13 13 12 10 9 8 8 8 7 7 6 6 6 6 5 5 6 5 4 3 2 2 3 2 2 3 4 5 5 5 7 7 7 8 10 11 11 12 13 13 10 8 6 5 4 3 3 5 8 12 14 15 16 17 20 23 23 23 24 26 27 28 30 32 34 34 34 34 34 33
7 3 3 6 5 5 4 5 3 6 7 7 10 11 12 13 14 15 14 13 11 10 8 8 7 7 6 6 7 6 5 5 6 6 4 3 2 1 2 1 1 2 3 4 5 4 5 6 6 7 8 10 11 12 13 12 10 9 8 7 7 7 5 4 3 4 8 11 12 13 14 16 18 18 15 15 19 24 26 27 27 28 30 31 31 31 31
3 2 6 8 6 4 5 9 9 5 7 9 11 12 12 13 14 14 13 12 11 10 9 7 7 6 6 6 7 6 6 6 6 5 4 3 2 1 1 0 1 2 3 5 5 4 4 5 5 6 8 9 10 12 13 12 10 9 9 10 11 11 10 10 10 9 9 11 11 11 10 9 11 12 13 14 13 13 16 17 18 19 21 23 24 26 30
1 1 4 8 9 7 9 11 11 7 6 9 12 13 13 14 14 13 12 11 10 9 8 7 7 6 6 6 7 7 7 7 6 5 5 5 4 2 1 0 1 2 3 4 4 4 4 5 5 6 7 8 10 11 11 11 11 11 11 13 14 13 14 15 15 15 17 18 18 18 19 20 21 23 28 32 32 30 27 26 28 29 30 31 30 28 28
3 1 4 8 10 10 11 11 9 7 5 7 10 12 14 15 14 13 12 10 9 8 7 7 7 6 6 6 7 8 8 7 7 6 5 5 5 3 3 2 1 1 2 2 3 2 3 5 6 7 8 9 10 11 11 10 10 11 13 15 16 16 18 19 21 22 24 25 27 29 31 34 37 38 40 42 42 40 38 36 35 34 32 31 29 27 26
4 4 6 9 11 9 9 9 7 6 4 6 7 9 14 16 14 13 12 10 9 8 8 7 7 7 6 8 8 8 8 8 7 5 4 5 5 4 3 3 2 1 2 2 3 2 4 6 7 7 8 9 9 10 10 10 11 12 15 18 18 17 19 22 25 29 32 33 35 36 37 38 39 40 42 44 43 41 40 38 36 34 31 29 26 25 26
5 6 7 9 9 9 8 8 8 7 5 5 7 9 13 16 15 13 11 9 8 8 7 7 8 7 7 8 9 9 10 9 7 6 5 5 5 4 4 3 2 2 2 3 2 4 7 9 9 8 9 9 9 9 10 11 13 16 19 19 19 20 20 20 22 27 31 31 31 32 34 36 38 38 39 40 40 39 38 37 35 33 30 28 26 24 24
8 8 7 7 8 9 11 12 13 11 7 6 9 11 13 15 14 13 11 9 8 7 7 7 8 8 8 9 10 11 11 9 8 7 7 6 5 5 5 3 2 2 3 4 3 6 9 11 10 8 9 10 10 10 10 11 14 18 20 19 19 22 22 19 19 22 25 25 24 23 23 26 31 36 37 37 37 37 36 36 35 33 32 30 28 25 24
11 10 9 9 9 10 13 15 14 11 7 7 11 13 14 14 13 12 11 10 9 8 8 9 8 8 8 9 10 11 11 10 9 9 9 8 6 5 5 3 2 3 5 6 6 8 10 10 9 9 10 11 12 12 13 14 16 18 18 18 19 20 21 22 23 23 23 23 24 23 20 20 25 31 35 35 35 35 34 34 33 32 31 30 28 27 26
8 8 8 7 6 8 12 12 10 8 7 8 12 15 17 16 14 12 12 11 10 9 9 10 9 9 9 10 10 11 12 11 11 10 9 8 6 5 5 5 4 5 7 8 8 10 10 10 9 10 12 13 13 14 16 18 19 19 18 18 19 20 22 22 22 21 21 23 24 23 22 21 23 26 30 32 32 32 32 32 31 30 29 27 26 25 25
7 6 7 6 5 7 10 10 8 7 8 9 13 17 18 15 12 12 12 11 10 10 10 10 10 9 10 11 10 11 12 13 12 10 9 8 6 6 6 6 6 7 9 10 11 11 12 11 11 12 13 13 14 14 16 18 20 21 20 19 20 21 22 21 19 19 22 24 23 21 20 20 21 23 26 29 30 30 29 29 28 27 26 25 23 23 23
10 9 8 7 7 8 9 10 9 9 10 13 16 18 16 12 10 11 12 11 11 11 11 11 11 10 11 11 11 11 12 12 11 9 9 8 8 7 7 7 8 9 11 12 12 11 12 12 13 13 13 14 15 16 16 18 20 22 22 22 22 22 23 23 22 23 24 23 22 22 23 23 24 25 27 27 27 26 25 25 24 24 23 22 22 21 20
13 11 9 8 7 8 9 10 10 10 12 14 16 16 13 10 9 10 11 11 11 12 12 11 11 11 12 12 12 11 12 11 10 9 9 9 9 10 10 11 12 13 12 12 11 11 11 12 13 14 14 15 15 16 17 18 19 20 22 23 23 23 23 24 24 24 22 21 22 23 23 24 24 25 24 24 23 22 21 19 19 20 20 21 21 19 17
16 17 15 12 10 9 9 10 10 11 11 13 14 14 12 11 11 12 12 12 12 12 12 11 11 12 13 13 12 12 12 11 10 10 10 11 11 12 13 14 14 13 12 10 10 11 10 10 11 12 13 13 14 15 15 16 16 18 19 21 22 22 22 23 23 22 20 20 21 22 23 23 23 22 21 20 19 18 17 17 17 17 18 19 19 18 17
17 19 18 16 14 12 10 9 10 10 10 12 13 13 12 13 14 14 14 13 12 12 12 12 12 13 13 12 12 13 12 12 11 11 12 11 11 13 17 17 15 13 11 10 10 10 10 9 10 10 11 12 12 12 13 14 15 16 17 18 18 18 18 19 20 20 19 20 21 21 21 20 20 19 18 17 16 15 15 15 15 15 15 15 15 16 16
15 17 18 17 16 14 12 10 9 9 10 11 12 12 12 13 15 15 14 13 12 13 13 12 12 13 13 13 13 13 13 12 11 11 13 12 10 14 21 22 17 14 14 12 11 11 11 10 10 10 11 12 12 12 13 13 14 14 16 17 16 15 15 15 16 16 16 16 18 18 18 18 18 17 17 16 15 14 14 14 14 13 12 12 12 14 15
16 16 17 17 17 16 15 12 10 10 11 12 12 11 11 13 16 15 14 13 14 14 13 12 13 14 13 13 13 13 12 12 11 12 14 12 11 15 22 23 19 17 16 14 13 13 12 11 10 10 11 13 13 13 13 13 12 12 13 14 15 15 14 14 14 14 13 13 14 15 16 16 17 17 17 16 15 13 13 12 11 10 9 10 11 13 14
16 17 17 17 17 17 16 14 12 12 13 14 13 11 10 12 15 16 15 15 15 13 12 12 14 15 14 12 12 13 13 12 11 12 13 13 12 16 22 24 22 19 16 15 14 14 12 11 11 10 11 13 14 14 14 14 13 12 12 12 12 12 12 13 13 13 12 12 12 14 16 17 17 17 17 16 14 13 12 11 9 8 8 9 10 12 14
14 16 17 17 16 17 17 16 15 15 16 16 15 14 14 14 16 17 17 17 15 12 12 13 14 14 14 13 13 12 12 12 12 12 13 13 13 16 21 25 23 19 16 16 16 14 12 11 11 10 11 12 12 13 14 14 13 11 10 10 10 10 10 11 11 11 12 13 14 15 16 17 17 17 15 14 12 11 10 9 8 8 8 9 10 11 13
10 12 13 14 15 17 17 18 18 18 17 17 17 17 18 19 20 20 20 18 14 12 13 14 14 14 14 14 12 11 11 12 13 14 14 14 15 17 22 25 24 19 16 16 16 14 12 12 11 11 11 11 11 12 13 13 11 8 7 7 8 9 9 9 10 10 12 14 16 15 15 15 16 16 14 12 11 10 9 8 8 8 8 8 9 11 12
8 8 9 10 13 15 17 18 18 18 18 18 18 18 19 20 21 21 21 17 13 12 13 14 14 14 14 13 12 11 11 12 14 15 15 16 18 18 19 21 22 18 16 16 15 14 14 14 12 11 12 12 11 12 13 12 9 7 5 5 7 9 10 11 12 12 13 14 15 15 16 16 17 16 14 12 11 10 9 7 6 6 7 8 9 10 11
7 6 7 8 10 12 14 16 16 16 17 18 18 19 19 20 21 21 20 16 12 12 13 14 14 14 14 13 12 12 12 12 15 15 14 15 18 17 15 18 21 19 16 16 16 15 15 15 13 11 12 13 12 12 11 9 7 6 6 6 7 9 12 13 14 14 14 15 15 16 16 16 16 15 14 12 10 8 7 6 5 6 7 9 10 11 11
7 5 5 7 8 10 12 14 15 16 16 17 18 19 20 20 21 21 18 15 13 13 14 14 15 15 14 14 13 13 12 13 16 16 15 15 17 17 16 19 22 20 17 17 17 15 14 14 12 12 13 15 14 11 9 7 6 6 7 8 8 10 11 13 14 14 15 16 16 16 17 17 15 14 12 10 9 7 6 6 6 7 9 10 11 11 11
7 5 4 5 6 8 11 14 15 16 16 17 18 20 20 21 23 21 18 16 15 15 15 15 15 15 15 15 15 14 13 14 16 18 16 15 17 19 19 19 20 19 18 19 18 15 13 13 13 13 16 17 15 11 8 6 5 6 8 10 10 10 11 13 14 14 14 15 15 16 17 16 14 13 11 9 8 7 6 6 7 8 10 11 11 12 12
7 5 4 4 5 6 8 10 12 14 15 16 18 20 21 22 22 21 17 16 16 16 16 16 16 16 16 16 16 14 13 13 15 17 17 18 21 22 20 18 18 19 20 21 18 15 13 14 15 16 17 18 16 12 9 7 6 8 10 11 12 12 12 13 14 13 14 14 14 14 14 13 11 10 9 8 7 6 6 6 7 8 8 9 10 10 11
9 8 5 3 4 6 7 7 9 11 12 14 17 20 22 21 20 19 16 15 15 15 15 15 15 16 17 17 16 15 14 13 13 15 16 18 20 20 18 17 18 20 20 19 16 14 14 16 17 18 18 18 17 14 10 8 8 9 10 12 13 13 13 13 13 12 13 13 13 13 12 12 10 10 9 8 7 7 7 7 7 7 7 8 8 9 10
10 10 7 4 4 5 7 8 9 11 12 13 15 18 18 17 17 16 15 15 15 15 14 14 15 16 17 17 16 16 16 15 15 14 14 15 17 18 18 18 19 19 18 17 15 14 15 16 18 19 19 19 18 15 12 10 10 10 10 12 13 12 12 12 12 12 12 12 13 13 13 12 11 11 11 10 9 8 7 6 7 7 7 7 8 8 9
9 9 7 5 5 6 7 8 10 12 13 13 13 14 15 15 15 14 15 15 15 15 14 14 14 15 16 17 17 17 17 18 18 17 15 15 16 18 18 18 18 18 18 17 17 16 16 16 17 18 19 20 19 16 13 11 11 10 11 12 12 12 12 12 12 12 12 12 13 13 13 12 12 12 11 10 9 9 8 8 8 7 7 7 8 9 9
8 7 6 6 7 8 9 9 11 12 13 13 12 13 15 15 15 15 16 18 18 17 16 15 15 15 16 17 17 18 19 19 18 18 18 18 17 18 18 18 18 17 16 15 15 15 15 15 16 17 19 20 19 16 14 13 12 11 11 12 12 12 12 12 12 12 12 12 12 13 13 13 13 13 12 11 10 10 9 9 9 9 9 9 9 9 9
6 6 6 7 8 9 10 10 10 10 11 12 14 14 15 16 17 17 18 19 20 19 18 17 16 16 17 17 17 20 21 21 19 19 20 19 18 17 18 18 18 17 16 15 14 15 16 16 17 18 19 19 18 16 15 15 14 12 12 12 12 12 12 14 14 13 12 12 12 13 13 13 14 14 13 12 11 11 10 10 10 10 10 11 10 9 9
5 6 6 7 8 9 9 10 10 10 10 12 13 13 13 15 17 18 18 19 20 20 20 20 19 18 18 17 18 22 25 23 19 17 16 16 15 14 15 15 17 17 17 15 14 14 15 16 18 21 21 19 17 16 17 17 15 13 13 13 12 12 13 14 14 13 13 13 13 13 14 14 15 14 14 12 12 12 11 11 11 11 11 11 10 9 9
5 6 6 7 7 8 9 10 11 11 11 13 13 12 12 15 17 17 18 20 20 21 22 22 22 21 20 19 20 23 26 24 19 17 16 16 15 14 13 14 16 16 16 15 14 13 14 16 19 22 23 20 16 16 19 19 17 14 14 14 13 12 13 13 13 13 15 15 14 13 14 15 15 14 13 13 12 12 12 12 11 11 11 11 10 9 9
Wind_Direction
227 242 219 217 237 251 259 245 224 210 203 209 224 236 242 237 253 276 45 172 236 253 180 155 153 168 191 182 167 168 164 159 153 138 150 153 134 75 58 53 33 12 351 339 337 332 317 286 256 244 243 241 239 239 239 240 241 240 236 232 234 238 239 237 236 237 238 239 237 234 235 238 240 237 231 229 230 230 231 232 232 232 231 229 235 238 242
207 193 200 217 229 234 237 234 227 214 210 217 228 236 236 231 249 269 270 234 245 250 167 120 115 139 159 149 148 158 159 163 172 177 186 184 185 183 133 49 352 328 320 326 333 328 320 313 295 264 248 241 239 240 239 238 239 239 238 237 237 236 237 237 235 235 238 242 243 243 245 246 245 244 241 238 235 232 232 233 233 233 232 230 231 232 237
207 191 192 205 220 228 230 226 221 219 224 226 229 239 241 230 243 254 250 251 252 215 125 124 132 141 153 157 161 163 162 171 190 211 219 205 198 198 194 295 305 298 296 302 308 311 313 313 306 291 266 251 244 241 243 244 241 238 237 239 240 239 238 237 235 235 238 242 244 246 248 249 248 247 246 245 243 240 237 235 235 237 237 236 235 233 234
219 195 198 206 210 229 240 234 223 219 226 232 233 237 237 237 251 250 239 250 252 162 136 142 150 159 171 173 167 164 164 174 197 221 233 229 224 220 228 301 300 286 284 291 296 297 300 303 300 290 274 262 255 249 246 245 244 242 238 235 236 236 237 236 235 238 240 241 244 245 246 248 249 249 248 247 247 246 243 240 238 238 240 240 240 238 233
229 194 201 211 209 227 240 236 229 225 225 235 241 240 234 236 252 258 249 256 205 130 149 162 163 172 183 179 169 168 168 177 199 222 238 251 252 244 274 301 297 293 291 292 294 295 297 294 286 278 270 261 253 247 241 236 234 236 239 238 235 232 234 235 236 238 240 241 243 244 245 245 246 247 249 247 246 245 245 244 242 240 239 238 240 241 237
234 183 181 210 222 232 239 201 241 238 232 234 240 246 244 226 230 256 271 226 111 140 175 182 172 172 175 169 164 163 164 176 198 218 232 251 268 276 296 310 301 295 290 286 288 291 285 276 273 277 277 272 267 261 254 250 243 236 235 238 239 237 237 237 235 235 236 239 241 242 243 244 243 244 246 247 246 245 245 245 245 243 241 238 238 240 240
241 178 179 223 231 229 160 94 87 234 245 241 245 256 259 237 223 235 239 204 159 167 176 165 159 157 154 152 158 169 182 189 192 208 225 242 281 304 311 306 298 293 291 291 290 282 276 277 282 288 285 277 275 274 271 270 265 252 240 236 236 238 239 238 236 235 235 236 236 237 239 240 240 241 242 244 246 246 245 244 243 243 242 240 238 239 241
235 204 211 231 236 162 124 119 110 121 191 221 234 249 246 230 222 217 211 192 157 154 150 141 142 144 147 162 179 194 211 207 191 195 211 234 289 321 313 297 296 298 296 297 294 287 288 295 298 294 287 282 282 281 280 278 275 268 257 247 242 240 239 239 238 237 237 237 236 235 236 237 237 238 239 242 244 244 242 241 242 243 243 241 239 239 240
228 231 228 230 245 211 188 188 182 188 203 209 223 247 235 205 200 196 188 169 153 157 156 145 143 145 158 192 202 203 219 217 190 190 194 214 294 316 304 292 298 300 294 295 301 301 302 304 301 296 291 290 289 286 284 282 278 273 268 261 256 251 246 243 242 240 237 238 238 236 235 234 235 236 237 240 241 240 239 237 238 240 241 239 237 235 234
218 240 240 229 241 241 223 216 205 205 217 220 228 254 247 184 185 188 182 169 163 166 162 154 151 158 189 233 194 178 200 212 188 187 193 206 291 298 294 298 299 294 293 300 308 310 307 305 303 299 297 297 295 291 286 285 283 278 273 269 265 261 255 251 249 246 241 238 238 237 236 234 234 233 234 237 239 239 238 237 237 237 237 235 235 234 233
214 234 243 233 240 244 220 198 189 194 203 196 210 251 245 179 176 183 180 172 171 171 166 161 161 180 237 275 134 146 176 201 177 173 173 194 284 296 305 311 306 299 303 310 313 314 311 310 309 305 302 300 295 292 289 284 283 281 277 274 269 263 260 256 252 249 246 242 238 237 237 235 233 232 233 234 236 236 236 236 235 234 232 231 234 236 235
219 223 238 239 244 238 158 156 171 172 167 167 200 247 251 162 169 180 179 174 173 170 164 166 178 215 266 357 100 130 154 162 158 162 158 188 271 303 308 309 310 313 318 316 315 319 317 315 317 312 308 306 301 297 294 284 280 278 276 275 271 267 265 260 254 249 247 245 240 238 237 235 234 232 231 231 232 232 233 232 229 228 225 227 235 239 237
223 219 234 245 246 194 127 144 160 148 143 180 221 245 191 154 170 179 180 176 170 166 167 177 195 203 108 95 107 127 141 140 149 162 145 150 273 298 305 312 321 322 319 317 318 322 321 320 321 320 317 317 313 307 301 292 284 279 276 273 270 269 268 266 260 254 248 245 242 240 238 236 235 231 228 228 228 227 229 228 224 224 226 230 235 236 233
229 227 234 241 244 172 129 138 148 148 169 223 234 186 139 164 172 173 178 177 167 166 175 185 187 137 117 120 121 125 134 138 145 159 143 146 274 287 307 321 329 323 320 322 321 321 323 324 327 331 330 326 322 314 306 299 290 284 280 273 268 266 266 267 265 260 253 247 242 240 238 236 235 232 228 226 226 224 225 223 220 222 230 234 234 232 229
231 234 230 237 251 155 138 139 145 183 214 249 164 149 144 162 170 169 173 173 165 169 177 175 161 144 136 142 138 132 141 145 146 161 179 264 273 291 314 321 322 323 322 322 321 322 327 328 331 336 333 328 325 318 310 302 295 291 284 274 267 263 262 264 265 263 257 249 240 237 237 235 234 233 230 228 226 222 219 218 220 226 233 234 231 228 226
226 234 219 230 301 142 159 162 171 208 209 55 102 168 156 148 166 168 165 166 164 168 173 165 161 162 155 154 153 147 150 152 154 173 227 264 275 298 317 316 318 323 322 323 326 328 329 331 334 334 329 325 326 324 320 314 307 302 296 280 263 253 257 266 267 263 260 251 237 231 232 232 232 233 231 228 226 223 221 224 230 233 233 231 229 226 223
257 270 276 314 4 141 184 190 0 214 201 188 40 189 168 153 167 168 161 161 160 162 167 165 168 175 169 165 164 157 155 158 161 185 233 253 274 306 315 312 319 326 322 325 330 331 335 339 338 333 330 332 334 332 328 323 315 310 306 289 261 243 248 263 269 267 260 245 231 227 227 228 230 231 229 225 225 226 229 232 236 235 230 227 226 223 219
298 291 294 302 351 343 209 212 291 345 197 178 104 188 175 161 161 162 160 160 159 162 168 170 176 182 177 170 170 165 162 164 172 201 242 260 280 306 305 304 320 330 325 326 330 334 344 349 346 341 343 348 348 345 342 336 327 317 309 292 268 246 242 252 259 259 247 232 224 222 224 226 228 229 229 230 232 235 235 234 234 231 228 226 225 222 216
287 272 355 356 347 345 275 233 233 238 198 177 148 143 161 156 152 151 153 157 163 169 174 177 181 181 179 177 177 175 171 170 188 216 239 262 279 292 297 303 321 330 326 329 333 337 349 357 354 350 353 360 1 360 0 359 354 350 344 331 302 262 253 259 257 247 238 232 225 220 222 226 227 227 228 230 231 232 232 232 230 226 225 224 223 218 210
239 246 304 322 312 301 282 239 225 222 203 186 166 140 144 149 149 151 153 158 166 174 181 185 181 175 179 183 181 178 174 176 198 220 235 258 276 290 305 312 325 333 331 337 341 344 354 3 1 355 358 8 10 10 13 15 14 11 6 0 351 325 295 283 266 246 235 231 226 222 221 222 222 224 226 228 227 223 221 223 224 223 222 221 218 215 208
238 243 279 315 309 289 276 250 222 213 201 181 166 153 149 151 155 161 165 167 171 176 182 184 176 172 178 184 182 175 171 181 205 218 230 249 259 276 298 311 328 340 344 347 346 348 356 2 1 1 9 16 17 17 20 20 18 15 12 10 11 6 343 304 267 240 225 218 217 220 221 219 216 216 218 224 227 223 216 212 213 216 216 213 210 208 202
238 246 0 2 326 284 311 355 319 232 216 193 169 158 154 157 163 169 171 172 174 178 182 179 173 174 183 191 188 177 169 187 206 210 216 222 217 241 280 304 334 349 3 2 349 346 0 4 2 8 21 28 29 30 31 28 25 29 37 47 57 64 71 86 125 182 190 186 187 195 204 208 207 202 196 203 216 217 210 203 200 203 204 198 191 182 172
239 39 22 3 337 305 332 353 346 298 236 205 181 169 165 166 168 171 173 173 175 182 188 182 171 175 191 198 187 173 174 195 202 198 193 186 177 206 249 346 21 17 24 11 348 341 9 21 19 22 31 37 38 39 41 41 42 51 65 77 86 90 95 103 111 121 132 134 137 146 158 170 178 169 146 129 134 159 173 168 155 149 151 149 144 139 136
246 61 11 350 339 328 324 330 335 323 266 218 196 186 177 170 168 168 168 167 171 181 190 188 178 179 193 194 179 171 182 196 195 185 180 168 159 173 202 146 23 22 42 29 354 345 24 47 48 43 44 49 52 54 55 55 56 63 72 83 91 97 102 107 110 113 117 120 121 124 124 124 125 124 120 114 110 110 114 118 117 114 112 113 114 115 116
261 303 351 338 328 326 328 329 332 327 284 232 208 192 180 172 169 168 164 162 167 175 181 190 195 194 188 179 173 176 186 191 188 190 188 169 157 163 177 168 115 39 57 47 16 12 54 71 70 61 54 56 62 69 74 73 71 73 76 83 92 99 102 106 110 112 115 117 118 119 119 119 118 116 115 113 111 110 109 111 111 109 106 107 112 116 117
277 293 307 307 305 316 334 337 337 337 297 231 207 189 181 177 170 164 163 164 166 167 170 184 200 200 183 170 173 183 189 188 188 190 182 162 156 163 176 177 164 140 106 58 42 78 102 95 86 75 66 64 67 77 85 86 82 81 84 87 93 100 104 107 109 112 115 116 116 116 116 115 115 114 113 113 114 114 113 112 111 111 111 113 117 120 119
288 293 298 298 296 308 330 332 326 327 309 241 203 186 184 183 176 168 168 169 170 171 175 186 195 191 175 168 177 187 191 189 185 174 161 160 170 179 177 175 176 160 125 78 83 133 124 108 97 85 77 75 75 79 90 96 95 95 95 93 95 100 105 107 108 112 115 115 113 114 114 114 115 116 116 116 116 116 116 115 116 118 120 121 122 121 118
279 284 281 273 275 292 308 309 306 310 304 250 214 199 192 189 182 173 170 172 176 182 190 198 196 182 169 173 183 188 189 186 177 167 164 172 184 181 164 156 168 159 132 115 129 142 131 119 109 96 88 87 89 92 97 100 102 104 103 101 101 103 104 105 107 110 111 110 110 109 109 111 115 118 119 119 120 121 122 123 124 125 125 124 123 122 120
269 270 261 250 257 278 290 295 298 301 288 245 223 210 202 196 186 172 165 170 177 184 197 203 193 174 172 185 190 189 187 183 175 172 175 178 180 172 157 153 157 143 134 133 137 139 135 129 120 110 103 100 101 107 110 107 105 105 106 108 111 111 111 112 113 112 111 112 113 112 109 110 115 118 120 121 123 124 124 124 123 123 122 122 122 122 120
265 269 261 246 243 262 274 279 283 282 269 242 219 209 207 202 188 169 166 173 177 182 194 199 184 171 181 192 192 188 187 182 178 180 180 176 173 167 159 154 146 133 131 134 136 137 137 132 122 118 116 111 108 109 112 112 110 108 107 110 113 115 117 118 117 116 117 119 116 113 112 114 116 118 120 121 120 120 121 120 120 120 120 121 122 123 121
264 263 262 250 237 245 254 255 250 248 245 228 212 208 210 206 188 171 172 179 180 184 192 190 177 174 186 191 187 186 184 178 176 180 177 170 169 166 156 151 148 141 138 137 134 132 132 128 120 115 114 113 112 112 113 114 111 107 105 106 106 107 111 113 114 117 120 120 118 116 117 118 120 121 122 122 121 121 121 120 120 121 122 124 125 124 123
271 263 255 247 241 241 242 240 234 224 215 210 206 205 207 206 192 181 181 183 185 190 192 183 172 177 190 190 184 182 181 176 174 175 170 169 172 167 156 154 155 151 144 139 134 130 128 124 118 111 109 111 112 110 109 110 109 107 108 109 109 109 110 112 114 119 120 119 118 120 122 123 125 126 125 124 122 122 121 121 123 125 127 129 129 128 130
259 256 248 241 240 240 237 235 230 219 209 206 205 203 201 197 191 188 188 190 193 195 189 177 172 181 190 189 181 178 178 175 173 173 171 173 177 173 163 158 157 154 147 140 136 134 131 126 120 116 115 116 116 113 110 108 107 108 111 114 115 116 116 116 117 119 120 120 121 124 125 127 129 130 127 125 123 120 118 120 124 128 132 132 130 129 132
242 242 242 242 244 244 239 236 230 219 208 204 202 201 198 191 188 190 191 194 200 197 184 175 176 183 186 184 181 179 179 176 176 177 176 177 179 176 170 164 160 156 151 145 142 141 136 132 129 125 123 124 125 124 121 117 115 116 117 118 119 121 121 121 122 123 125 128 130 132 133 134 134 133 130 126 123 120 117 119 123 129 132 133 131 131 131
245 241 238 237 240 241 238 238 233 220 207 200 199 200 200 196 193 194 195 198 201 193 180 174 179 183 182 181 181 183 184 183 182 181 179 182 189 187 180 174 169 165 161 156 152 150 148 146 144 140 136 135 137 137 135 129 124 123 124 124 124 123 123 124 125 126 129 135 138 139 140 140 137 135 132 128 123 118 116 117 121 124 126 129 132 135 134
249 245 239 234 233 233 232 236 232 217 205 202 202 203 203 201 200 200 201 201 196 185 176 176 181 182 180 181 184 186 188 187 184 179 177 184 195 191 181 176 175 174 172 166 161 160 158 154 154 153 150 151 153 153 148 141 134 132 132 132 131 130 129 131 130 128 131 141 147 148 148 146 141 137 135 130 125 121 119 118 118 117 117 123 133 139 139
247 246 242 235 229 226 226 229 229 216 204 202 205 206 204 203 206 205 200 198 195 185 176 178 184 184 182 183 184 187 188 186 182 178 178 181 186 182 178 177 177 178 177 173 169 166 160 153 153 157 160 162 164 159 154 150 147 143 142 142 143 143 144 146 145 140 140 150 157 157 155 153 148 144 141 136 131 128 127 124 119 114 114 122 135 143 145
249 246 242 236 230 224 222 222 223 215 200 196 202 205 198 200 209 209 200 197 197 188 176 177 184 185 183 182 183 186 187 184 181 180 180 179 178 179 181 181 179 177 180 180 177 174 166 157 156 163 167 167 165 160 156 154 149 146 148 154 156 155 154 157 158 155 152 159 166 164 162 160 157 153 149 146 141 138 136 132 123 115 118 128 139 147 150
257 249 243 236 228 222 218 217 218 214 202 195 198 196 187 192 208 211 202 198 195 184 175 179 182 181 181 182 183 185 184 181 180 180 179 176 176 179 183 182 180 181 186 185 180 179 176 166 162 169 173 168 163 162 160 155 148 146 152 161 165 163 159 159 163 163 163 166 170 168 165 165 166 164 159 153 148 144 140 134 125 119 125 136 144 151 155
272 255 244 234 225 219 216 213 214 212 205 199 199 195 191 195 204 205 200 197 191 181 178 180 180 179 182 183 183 185 183 180 179 179 176 175 178 181 183 184 184 186 188 185 180 180 179 169 162 168 169 161 155 156 154 148 143 143 149 159 169 173 171 169 170 170 170 172 173 168 160 162 169 170 163 156 153 148 141 134 130 130 136 145 152 157 161
295 265 242 226 219 216 215 214 213 210 203 200 200 198 197 199 201 200 200 199 190 179 180 182 181 182 184 183 182 185 185 182 180 178 177 179 181 180 184 189 190 188 189 188 183 179 174 167 164 169 168 162 159 156 149 140 138 143 153 169 179 177 174 175 175 173 171 173 173 169 166 168 173 171 167 164 162 157 150 147 149 150 152 155 158 161 165
310 278 242 220 213 212 212 212 209 202 197 196 196 194 194 196 198 200 201 198 186 177 180 183 183 184 184 182 182 183 181 179 178 177 178 182 180 176 181 191 191 188 187 185 178 174 174 174 173 174 173 171 167 158 144 135 139 149 156 169 175 171 169 172 174 174 174 175 176 177 179 181 180 176 174 174 172 167 166 171 170 165 161 160 160 163 164
321 296 253 224 213 208 206 201 194 188 188 190 189 188 189 192 195 198 198 191 182 179 181 183 184 185 184 182 181 179 176 176 177 177 178 182 181 180 186 193 193 190 188 181 174 173 180 182 181 181 181 180 175 163 146 141 151 155 151 154 158 159 161 165 168 169 172 173 175 177 180 180 179 178 178 178 176 175 179 181 174 165 159 156 156 158 161
322 313 273 237 218 209 206 199 190 186 186 186 184 183 185 189 194 199 198 191 185 182 182 182 183 185 185 184 183 180 177 177 179 179 178 181 185 189 195 197 194 192 189 183 177 177 182 186 186 185 183 181 178 169 154 146 154 157 151 149 149 150 153 158 161 163 165 167 171 176 179 180 181 181 180 180 181 183 185 184 178 169 162 157 157 160 165
305 306 285 248 222 213 208 202 196 195 195 191 186 184 186 192 197 199 196 189 185 183 183 182 183 184 186 186 186 185 183 181 182 183 184 186 188 191 193 195 195 193 191 187 184 185 189 192 190 185 180 179 177 170 161 155 157 157 154 151 150 149 150 152 155 157 159 162 166 172 176 178 179 180 180 179 181 185 187 186 181 175 169 165 165 167 170
290 289 285 262 229 215 205 196 193 195 196 194 190 188 191 197 201 200 193 186 184 183 183 183 183 185 185 185 185 186 186 183 183 185 187 189 189 187 183 185 189 192 192 192 192 193 197 197 191 184 182 180 176 170 166 165 162 157 156 157 155 153 153 154 154 155 158 161 164 167 169 169 169 172 174 174 174 180 186 185 180 176 172 169 168 170 172
283 281 277 264 238 218 203 192 187 186 186 188 190 190 190 193 197 196 190 184 181 181 182 183 185 185 184 182 183 184 182 177 175 175 177 183 187 184 178 180 185 189 191 194 196 198 201 199 193 187 185 184 180 175 175 173 166 160 160 162 160 158 159 161 160 159 161 164 166 169 170 169 169 173 176 177 178 183 185 180 176 177 179 176 174 173 172
279 274 266 252 236 220 205 196 192 191 190 189 189 188 186 185 186 186 182 178 177 179 180 183 185 185 181 180 183 184 178 172 171 171 172 176 181 181 180 186 193 195 193 195 199 203 203 199 194 190 188 186 184 183 183 179 172 168 165 165 165 166 168 168 167 167 169 172 174 174 175 176 177 179 180 178 177 180 180 176 176 179 180 178 174 169 166
280 269 253 238 230 221 211 204 202 202 200 197 195 191 186 184 184 183 179 176 176 177 178 180 183 182 178 177 181 181 177 172 172 173 173 173 175 179 184 192 198 198 193 192 199 206 204 197 191 190 188 186 186 187 187 183 179 175 170 170 171 171 172 174 175 177 178 180 181 182 184 185 185 185 182 177 178 182 181 177 178 181 178 174 172 169 166
281 264 246 234 228 222 215 212 211 208 203 201 201 197 188 184 185 186 183 178 176 175 175 177 180 179 178 177 177 176 174 174 174 176 176 176 179 185 189 192 194 193 189 186 192 202 203 195 188 185 184 184 186 188 187 185 183 181 178 177 176 177 182 186 187 186 186 186 187 189 191 191 191 190 187 181 182 185 181 177 184 187 180 172 172 173 170
277 263 251 237 229 225 222 219 217 212 203 200 202 201 191 186 188 190 186 181 177 173 172 174 178 179 178 177 177 177 178 176 175 177 181 184 185 187 189 190 191 193 190 185 186 195 199 194 187 184 182 182 184 187 188 187 186 185 185 184 183 186 192 195 194 193 196 195 192 192 193 193 193 194 192 186 185 186 182 180 186 188 178 171 175 178 172
277 263 250 237 231 231 227 219 216 212 203 197 197 197 189 185 187 188 186 185 182 177 173 173 177 178 178 177 177 180 182 181 179 182 189 193 192 189 188 188 191 193 191 186 184 190 194 194 191 188 185 182 183 189 191 191 188 188 189 190 190 191 195 195 193 197 203 203 198 195 195 195 195 196 193 189 188 189 185 183 186 187 180 176 180 180 175
Height
1491 1491 1493 1492 1493 1495 1493 1494 1496 1497 1499 1501 1503 1504 1502 1503 1511 1512 1505 1507 1511 1505 1500 1502 1502 1503 1505 1506 1508 1510 1511 1513 1514 1514 1515 1515 1515 1515 1515 1515 1515 1515 1516 1516 1515 1516 1515 1515 1515 1515 1515 1516 1516 1517 1518 1519 1520 1522 1524 1525 1526 1527 1527 1528 1530 1531 1533 1535 1537 1539 1540 1541 1542 1543 1545 1547 1548 1550 1551 1552 1553 1554 1555 1556 1557 1557 1558
1492 1493 1494 1493 1493 1495 1495 1494 1494 1495 1497 1499 1500 1499 1498 1501 1505 1504 1503 1508 1507 1500 1498 1500 1502 1503 1505 1506 1509 1510 1511 1513 1513 1513 1514 1514 1514 1515 1514 1515 1515 1515 1515 1515 1515 1515 1514 1514 1514 1514 1514 1515 1515 1515 1516 1516 1517 1519 1520 1522 1523 1524 1525 1526 1527 1528 1530 1532 1533 1535 1536 1538 1539 1540 1542 1544 1545 1546 1547 1548 1550 1551 1552 1553 1554 1555 1555
1495 1494 1494 1494 1494 1495 1496 1495 1493 1494 1496 1497 1498 1498 1497 1501 1504 1502 1503 1508 1505 1498 1497 1500 1503 1505 1505 1506 1508 1509 1511 1512 1512 1513 1514 1513 1514 1514 1514 1514 1514 1514 1514 1514 1514 1514 1513 1514 1513 1513 1513 1513 1513 1514 1514 1514 1515 1516 1517 1518 1519 1521 1522 1523 1524 1525 1527 1528 1530 1531 1533 1534 1536 1537 1539 1540 1542 1543 1544 1545 1546 1547 1548 1549 1550 1552 1553
1497 1493 1494 1495 1494 1494 1496 1496 1494 1495 1497 1497 1496 1496 1497 1500 1503 1502 1504 1507 1503 1496 1497 1500 1503 1503 1504 1505 1506 1508 1510 1511 1512 1512 1513 1513 1513 1513 1514 1514 1514 1514 1514 1513 1513 1513 1512 1512 1512 1512 1512 1512 1512 1512 1512 1512 1513 1513 1515 1516 1517 1518 1519 1521 1522 1522 1524 1525 1526 1528 1529 1531 1532 1533 1535 1536 1538 1539 1540 1542 1543 1543 1544 1545 1546 1548 1549
1495 1492 1494 1494 1496 1503 1503 1494 1490 1491 1493 1494 1494 1493 1494 1496 1498 1501 1503 1502 1497 1494 1496 1500 1501 1502 1503 1504 1505 1508 1509 1510 1511 1512 1512 1512 1513 1513 1513 1513 1513 1513 1513 1512 1512 1512 1511 1511 1510 1510 1510 1510 1510 1510 1510 1510 1510 1511 1512 1513 1514 1515 1516 1517 1519 1519 1521 1522 1523 1525 1526 1527 1529 1530 1531 1533 1534 1535 1537 1538 1540 1540 1541 1542 1543 1544 1546
1496 1494 1493 1496 1505 1512 1503 1487 1482 1485 1488 1490 1494 1493 1492 1492 1494 1495 1496 1495 1494 1495 1496 1498 1499 1501 1502 1504 1505 1507 1508 1509 1511 1511 1511 1512 1512 1512 1513 1513 1513 1513 1512 1512 1511 1510 1510 1509 1508 1508 1507 1507 1507 1507 1507 1508 1508 1509 1510 1510 1511 1512 1513 1514 1515 1516 1518 1518 1519 1521 1522 1524 1525 1526 1528 1529 1530 1532 1534 1535 1536 1537 1538 1539 1540 1541 1542
1494 1493 1498 1511 1515 1505 1490 1483 1482 1484 1485 1487 1491 1491 1489 1489 1492 1493 1494 1495 1495 1495 1496 1497 1499 1501 1502 1504 1505 1506 1507 1508 1509 1510 1511 1511 1511 1512 1512 1512 1512 1511 1511 1510 1509 1508 1508 1507 1506 1506 1505 1505 1505 1504 1505 1505 1506 1506 1507 1507 1508 1509 1510 1511 1512 1513 1514 1515 1516 1517 1519 1520 1521 1522 1524 1525 1527 1529 1530 1531 1532 1533 1535 1536 1537 1538 1539
1494 1497 1505 1513 1506 1490 1484 1486 1486 1485 1488 1489 1492 1495 1490 1487 1489 1492 1493 1494 1494 1495 1498 1498 1500 1502 1503 1504 1505 1506 1506 1507 1508 1509 1510 1510 1511 1511 1511 1511 1511 1510 1510 1509 1508 1507 1506 1505 1504 1504 1503 1503 1502 1502 1502 1503 1503 1504 1504 1505 1506 1506 1507 1508 1508 1509 1510 1511 1512 1513 1515 1516 1517 1518 1520 1521 1523 1525 1526 1527 1529 1530 1531 1533 1534 1535 1536
1494 1499 1499 1497 1494 1492 1491 1489 1485 1485 1487 1487 1491 1495 1490 1483 1484 1489 1491 1492 1494 1496 1498 1499 1500 1502 1503 1503 1504 1504 1505 1506 1506 1507 1508 1509 1510 1510 1510 1510 1510 1509 1509 1507 1506 1505 1504 1503 1503 1502 1501 1501 1500 1500 1500 1500 1501 1501 1502 1502 1503 1503 1504 1504 1505 1506 1507 1508 1509 1509 1511 1512 1513 1514 1516 1517 1519 1521 1522 1524 1525 1526 1528 1529 1530 1531 1532
1490 1494 1496 1497 1503 1503 1493 1484 1480 1480 1482 1481 1484 1490 1489 1483 1483 1486 1488 1491 1493 1495 1497 1499 1500 1502 1503 1502 1500 1502 1504 1505 1505 1506 1507 1508 1509 1509 1509 1509 1508 1508 1507 1505 1504 1503 1502 1502 1501 1500 1500 1499 1498 1498 1498 1498 1498 1498 1498 1499 1500 1500 1501 1501 1502 1503 1503 1504 1505 1506 1507 1508 1509 1510 1512 1514 1516 1517 1519 1520 1522 1523 1524 1525 1527 1528 1529
1487 1494 1499 1500 1502 1496 1483 1477 1477 1479 1482 1480 1483 1493 1492 1482 1480 1485 1486 1488 1492 1493 1496 1498 1499 1501 1503 1499 1497 1500 1503 1504 1505 1506 1507 1507 1508 1508 1508 1508 1507 1506 1505 1503 1503 1502 1501 1501 1499 1498 1498 1497 1497 1496 1496 1496 1496 1496 1496 1496 1496 1497 1497 1498 1498 1499 1500 1500 1501 1502 1502 1503 1505 1506 1508 1510 1512 1513 1515 1517 1518 1519 1521 1522 1523 1525 1526
1484 1491 1496 1491 1487 1483 1477 1476 1477 1480 1480 1480 1490 1504 1498 1480 1479 1484 1485 1487 1490 1492 1495 1497 1497 1499 1499 1497 1498 1501 1503 1503 1505 1506 1507 1507 1507 1507 1508 1507 1506 1505 1503 1503 1502 1501 1500 1499 1498 1497 1496 1496 1495 1494 1494 1494 1494 1493 1494 1493 1493 1493 1493 1494 1494 1495 1496 1496 1497 1497 1498 1499 1500 1501 1503 1506 1508 1509 1511 1513 1514 1516 1518 1519 1520 1521 1523
1481 1489 1493 1487 1480 1476 1475 1476 1477 1478 1481 1487 1497 1502 1490 1478 1479 1483 1483 1486 1489 1491 1494 1495 1495 1496 1497 1498 1500 1502 1502 1504 1505 1505 1506 1506 1506 1507 1507 1505 1504 1504 1503 1502 1500 1499 1499 1498 1497 1496 1495 1494 1494 1493 1492 1492 1491 1491 1491 1490 1490 1490 1490 1489 1490 1490 1491 1492 1492 1493 1494 1495 1496 1496 1498 1501 1503 1506 1508 1509 1511 1513 1514 1516 1517 1518 1520
1479 1481 1485 1486 1482 1474 1472 1477 1478 1478 1485 1492 1492 1485 1478 1478 1480 1481 1483 1486 1488 1490 1493 1493 1493 1495 1497 1499 1500 1501 1503 1504 1504 1505 1506 1506 1506 1506 1505 1504 1504 1503 1502 1501 1500 1499 1497 1496 1495 1494 1494 1493 1492 1491 1491 1490 1489 1489 1488 1487 1487 1486 1486 1486 1486 1486 1486 1487 1488 1489 1491 1491 1492 1492 1494 1497 1499 1501 1503 1505 1507 1509 1510 1512 1513 1515 1516
1478 1479 1484 1491 1487 1475 1470 1476 1480 1480 1482 1482 1478 1476 1477 1478 1478 1480 1484 1485 1487 1490 1492 1492 1494 1496 1497 1499 1500 1501 1502 1503 1504 1505 1505 1505 1505 1505 1505 1505 1504 1502 1501 1500 1499 1498 1497 1496 1494 1493 1492 1491 1490 1490 1489 1488 1487 1486 1485 1484 1483 1483 1483 1483 1482 1482 1482 1482 1484 1486 1487 1489 1489 1490 1491 1493 1495 1497 1499 1501 1503 1504 1506 1507 1509 1511 1512
1478 1485 1487 1487 1480 1471 1469 1473 1476 1476 1475 1474 1474 1476 1477 1477 1479 1482 1484 1485 1487 1490 1490 1492 1495 1496 1497 1499 1500 1500 1502 1502 1503 1504 1504 1504 1505 1504 1504 1504 1503 1501 1501 1499 1498 1498 1496 1495 1493 1492 1491 1490 1489 1488 1487 1485 1484 1483 1482 1481 1480 1480 1480 1480 1479 1479 1478 1479 1480 1482 1484 1486 1487 1487 1488 1490 1490 1493 1495 1497 1498 1500 1502 1503 1505 1507 1509
1475 1478 1478 1475 1472 1471 1471 1472 1472 1473 1474 1475 1475 1475 1475 1477 1480 1481 1483 1486 1488 1489 1491 1493 1495 1496 1497 1499 1499 1500 1501 1501 1502 1503 1503 1504 1504 1503 1504 1503 1501 1500 1499 1498 1498 1497 1495 1494 1492 1491 1490 1488 1487 1486 1485 1483 1482 1481 1480 1479 1478 1478 1478 1478 1477 1477 1476 1477 1478 1479 1481 1483 1483 1484 1486 1487 1487 1489 1491 1493 1495 1497 1499 1500 1502 1503 1505
1473 1472 1472 1471 1472 1472 1472 1473 1474 1474 1474 1475 1475 1475 1476 1478 1480 1481 1484 1486 1488 1489 1491 1493 1494 1496 1497 1498 1498 1500 1500 1501 1502 1502 1503 1503 1503 1503 1503 1502 1500 1500 1499 1498 1498 1496 1494 1493 1492 1490 1489 1487 1486 1484 1483 1481 1480 1478 1477 1477 1476 1476 1476 1475 1475 1475 1475 1475 1476 1477 1478 1479 1480 1481 1483 1484 1485 1486 1488 1490 1491 1493 1495 1497 1499 1501 1502
1477 1477 1473 1471 1472 1473 1473 1474 1474 1474 1474 1475 1475 1476 1477 1478 1480 1482 1484 1486 1488 1490 1491 1492 1494 1496 1496 1497 1498 1498 1499 1500 1501 1501 1502 1503 1502 1502 1502 1500 1499 1499 1499 1498 1497 1495 1494 1492 1491 1490 1489 1487 1485 1483 1482 1480 1478 1477 1475 1475 1474 1474 1473 1473 1473 1474 1474 1474 1474 1475 1475 1476 1478 1479 1480 1481 1483 1484 1485 1487 1488 1489 1492 1494 1496 1498 1500
1475 1475 1472 1471 1473 1473 1473 1473 1474 1474 1475 1475 1475 1476 1477 1479 1481 1483 1484 1486 1488 1489 1491 1492 1494 1495 1495 1496 1497 1497 1498 1500 1500 1501 1502 1502 1501 1501 1501 1499 1499 1499 1498 1497 1496 1495 1493 1492 1491 1490 1488 1486 1484 1483 1481 1479 1478 1476 1475 1474 1473 1472 1472 1472 1472 1472 1472 1472 1472 1473 1473 1474 1475 1477 1478 1479 1480 1481 1482 1484 1485 1487 1489 1491 1493 1495 1496
1473 1473 1472 1473 1473 1472 1472 1473 1474 1474 1475 1475 1475 1477 1478 1479 1481 1482 1484 1486 1488 1489 1491 1492 1493 1494 1495 1495 1496 1497 1498 1499 1500 1501 1501 1501 1501 1501 1500 1499 1499 1498 1497 1497 1495 1494 1493 1492 1491 1490 1488 1486 1484 1482 1481 1479 1478 1477 1475 1474 1473 1472 1471 1471 1471 1471 1471 1471 1471 1471 1472 1473 1474 1475 1476 1477 1478 1479 1481 1483 1484 1485 1487 1488 1491 1493 1495
1477 1475 1475 1476 1477 1476 1475 1475 1474 1475 1475 1475 1476 1476 1478 1479 1481 1482 1484 1486 1487 1489 1490 1491 1492 1493 1494 1494 1495 1496 1497 1498 1499 1500 1500 1501 1501 1500 1500 1500 1499 1498 1497 1496 1495 1494 1493 1492 1492 1490 1488 1486 1484 1483 1481 1480 1479 1478 1477 1475 1473 1472 1471 1471 1471 1471 1471 1471 1471 1471 1472 1472 1473 1474 1475 1477 1478 1479 1480 1482 1484 1485 1486 1488 1491 1493 1494
1474 1475 1476 1478 1478 1477 1476 1476 1476 1476 1476 1476 1476 1477 1478 1480 1481 1482 1484 1485 1486 1488 1489 1491 1492 1493 1493 1493 1495 1496 1497 1498 1499 1499 1500 1500 1500 1500 1500 1499 1499 1498 1497 1496 1495 1495 1493 1493 1493 1491 1489 1487 1485 1484 1483 1481 1481 1480 1478 1476 1475 1474 1473 1473 1473 1473 1473 1473 1473 1473 1473 1474 1474 1475 1476 1478 1481 1482 1483 1485 1488 1490 1491 1493 1497 1500 1500
1472 1474 1477 1478 1478 1478 1477 1476 1476 1476 1476 1476 1477 1477 1478 1479 1481 1482 1484 1484 1485 1487 1488 1490 1491 1492 1492 1493 1494 1495 1496 1497 1498 1498 1499 1499 1500 1500 1500 1499 1499 1498 1497 1496 1495 1495 1494 1494 1493 1492 1490 1489 1487 1486 1485 1484 1483 1482 1480 1478 1477 1476 1476 1476 1476 1476 1476 1476 1476 1476 1476 1477 1477 1478 1478 1479 1482 1486 1488 1490 1493 1497 1498 1499 1502 1507 1510
1473 1474 1476 1477 1478 1478 1477 1476 1475 1475 1475 1476 1477 1477 1477 1478 1480 1482 1483 1483 1485 1486 1487 1489 1490 1491 1491 1493 1494 1495 1496 1497 1497 1498 1497 1498 1499 1500 1500 1500 1500 1499 1497 1496 1496 1495 1495 1495 1494 1493 1492 1490 1488 1488 1487 1486 1485 1484 1483 1481 1480 1480 1480 1480 1480 1480 1480 1481 1481 1481 1481 1481 1482 1482 1483 1483 1485 1489 1492 1494 1496 1500 1503 1506 1509 1513 1516
1474 1475 1475 1476 1477 1477 1476 1476 1475 1475 1475 1475 1476 1477 1477 1478 1480 1481 1482 1482 1483 1485 1486 1488 1488 1489 1491 1492 1494 1495 1495 1496 1496 1496 1496 1498 1499 1499 1500 1500 1499 1499 1498 1497 1496 1496 1496 1495 1495 1495 1493 1492 1491 1490 1489 1488 1488 1487 1486 1485 1484 1484 1484 1485 1485 1485 1485 1486 1487 1487 1487 1487 1487 1488 1488 1489 1490 1494 1496 1497 1499 1502 1506 1511 1516 1520 1520
1474 1474 1475 1475 1475 1476 1476 1476 1476 1475 1474 1474 1475 1476 1477 1478 1479 1480 1480 1481 1482 1484 1485 1486 1487 1488 1490 1492 1493 1494 1495 1495 1495 1496 1497 1498 1499 1499 1500 1499 1498 1498 1498 1497 1497 1497 1496 1496 1496 1495 1495 1494 1494 1492 1491 1490 1490 1490 1490 1489 1488 1488 1489 1489 1490 1491 1491 1491 1492 1492 1492 1492 1492 1493 1494 1495 1496 1499 1500 1501 1504 1508 1512 1517 1521 1524 1523
1473 1473 1474 1474 1475 1476 1475 1475 1475 1474 1473 1474 1475 1476 1478 1479 1479 1479 1479 1480 1481 1482 1484 1485 1486 1488 1490 1491 1493 1494 1494 1495 1495 1496 1497 1498 1499 1499 1499 1499 1498 1498 1498 1498 1498 1497 1497 1497 1497 1496 1496 1496 1496 1495 1494 1493 1493 1493 1493 1493 1493 1493 1493 1494 1495 1496 1496 1497 1498 1498 1499 1499 1498 1499 1499 1501 1502 1504 1505 1507 1510 1513 1517 1520 1523 1524 1524
1472 1472 1472 1473 1474 1474 1474 1474 1474 1474 1474 1474 1475 1476 1478 1479 1479 1478 1477 1478 1480 1481 1483 1484 1485 1487 1489 1491 1492 1492 1494 1495 1496 1496 1497 1498 1498 1498 1498 1499 1498 1498 1498 1499 1499 1498 1498 1498 1498 1498 1497 1497 1497 1497 1497 1496 1495 1495 1496 1497 1497 1497 1497 1498 1499 1499 1500 1501 1502 1503 1504 1505 1505 1505 1505 1506 1507 1508 1510 1512 1514 1516 1518 1520 1522 1523 1524
1469 1470 1470 1470 1471 1473 1474 1474 1474 1473 1473 1473 1474 1476 1478 1478 1477 1476 1476 1477 1479 1480 1482 1483 1485 1487 1489 1490 1491 1492 1493 1494 1495 1496 1497 1497 1498 1498 1498 1499 1499 1498 1499 1499 1499 1499 1500 1499 1499 1499 1499 1498 1498 1498 1498 1498 1498 1497 1498 1499 1499 1499 1500 1501 1502 1502 1503 1504 1505 1506 1508 1509 1510 1510 1510 1511 1512 1513 1514 1515 1517 1518 1520 1521 1523 1524 1524
1467 1468 1468 1468 1469 1471 1473 1473 1472 1471 1471 1472 1473 1475 1476 1476 1474 1473 1474 1476 1478 1479 1481 1482 1484 1486 1488 1489 1490 1491 1492 1493 1494 1496 1496 1497 1497 1498 1499 1499 1499 1500 1500 1500 1500 1500 1500 1500 1501 1500 1500 1500 1500 1500 1500 1500 1500 1499 1500 1502 1502 1502 1503 1503 1504 1505 1506 1506 1507 1509 1510 1511 1513 1513 1514 1514 1515 1516 1516 1517 1518 1520 1521 1523 1524 1525 1526
1466 1466 1467 1467 1468 1469 1471 1470 1470 1470 1470 1471 1472 1473 1473 1473 1473 1473 1474 1475 1477 1479 1480 1481 1483 1485 1487 1488 1489 1490 1491 1492 1493 1495 1496 1496 1497 1498 1499 1500 1500 1500 1501 1501 1501 1501 1502 1502 1502 1502 1502 1502 1502 1502 1503 1503 1502 1502 1503 1504 1505 1505 1506 1507 1507 1508 1509 1509 1510 1511 1512 1513 1515 1515 1516 1517 1518 1518 1519 1520 1521 1522 1523 1525 1526 1527 1528
1465 1465 1465 1466 1466 1467 1467 1467 1467 1468 1468 1469 1470 1470 1471 1471 1472 1473 1474 1475 1476 1478 1479 1481 1483 1484 1486 1487 1488 1490 1491 1491 1493 1494 1495 1496 1497 1498 1499 1500 1500 1501 1501 1502 1502 1503 1503 1503 1503 1503 1503 1504 1504 1505 1505 1505 1505 1505 1506 1506 1507 1508 1509 1510 1510 1511 1513 1514 1514 1515 1515 1516 1517 1518 1519 1520 1520 1521 1522 1523 1523 1524 1525 1526 1528 1529 1530
1462 1462 1462 1463 1464 1465 1465 1466 1466 1466 1466 1467 1468 1468 1469 1469 1471 1472 1473 1475 1476 1477 1479 1480 1482 1483 1485 1486 1487 1489 1490 1491 1492 1493 1495 1496 1497 1498 1499 1500 1500 1501 1502 1502 1503 1503 1504 1504 1504 1504 1505 1505 1506 1506 1507 1507 1507 1508 1508 1509 1509 1510 1511 1512 1512 1513 1515 1516 1517 1517 1518 1519 1520 1521 1522 1522 1523 1524 1524 1525 1526 1526 1527 1528 1529 1530 1532
1458 1459 1459 1460 1462 1462 1463 1464 1464 1464 1464 1465 1466 1467 1467 1468 1470 1471 1472 1474 1475 1476 1478 1480 1481 1482 1484 1485 1486 1488 1489 1490 1491 1493 1494 1495 1496 1497 1498 1500 1501 1501 1502 1503 1503 1504 1504 1504 1505 1505 1506 1506 1507 1508 1508 1509 1509 1510 1510 1511 1512 1512 1513 1514 1514 1515 1516 1517 1518 1519 1520 1521 1522 1523 1523 1524 1525 1526 1526 1527 1527 1528 1528 1529 1530 1531 1533
1455 1456 1457 1458 1459 1460 1461 1462 1462 1462 1463 1464 1465 1466 1466 1468 1469 1470 1472 1473 1474 1476 1477 1479 1480 1481 1483 1484 1486 1487 1488 1489 1490 1492 1493 1494 1495 1496 1497 1499 1500 1501 1502 1503 1503 1504 1505 1505 1506 1506 1507 1507 1508 1508 1509 1510 1511 1511 1512 1513 1514 1514 1515 1516 1516 1516 1517 1519 1520 1522 1522 1523 1523 1524 1525 1526 1526 1527 1528 1528 1529 1529 1530 1530 1531 1532 1533
1453 1453 1454 1455 1456 1458 1459 1460 1460 1460 1461 1462 1463 1464 1465 1467 1468 1470 1471 1472 1473 1474 1476 1478 1479 1480 1482 1483 1484 1486 1487 1488 1489 1490 1492 1493 1494 1495 1497 1498 1499 1501 1502 1503 1504 1504 1505 1506 1507 1507 1508 1508 1509 1509 1510 1510 1511 1512 1513 1514 1515 1516 1516 1517 1517 1517 1518 1520 1522 1523 1524 1525 1525 1526 1526 1527 1528 1529 1529 1530 1530 1530 1531 1531 1532 1533 1534
1451 1451 1452 1453 1454 1455 1456 1457 1458 1459 1459 1461 1462 1463 1463 1465 1468 1469 1470 1471 1472 1473 1475 1477 1478 1479 1480 1482 1483 1485 1486 1487 1488 1489 1491 1492 1493 1495 1496 1498 1499 1501 1502 1503 1503 1504 1505 1506 1507 1508 1509 1509 1510 1510 1511 1511 1512 1513 1514 1515 1516 1517 1517 1518 1518 1519 1519 1521 1523 1524 1525 1526 1527 1527 1528 1528 1529 1530 1530 1531 1531 1532 1532 1532 1533 1534 1534
1449 1449 1449 1450 1451 1453 1454 1455 1456 1457 1457 1459 1460 1461 1462 1464 1466 1469 1470 1470 1471 1472 1473 1475 1476 1478 1479 1481 1482 1483 1484 1486 1487 1489 1490 1491 1493 1494 1496 1497 1499 1500 1501 1502 1503 1505 1506 1506 1507 1508 1509 1510 1510 1511 1512 1512 1513 1514 1515 1516 1516 1517 1518 1519 1520 1520 1521 1522 1523 1525 1527 1527 1528 1528 1529 1529 1530 1530 1531 1532 1532 1533 1533 1533 1534 1534 1535
1447 1447 1447 1448 1449 1450 1452 1453 1454 1455 1455 1457 1458 1459 1460 1463 1465 1467 1468 1469 1469 1470 1472 1474 1475 1477 1478 1480 1481 1482 1483 1485 1487 1488 1489 1490 1492 1493 1495 1496 1497 1499 1501 1502 1503 1504 1505 1506 1507 1508 1509 1510 1511 1512 1512 1513 1514 1515 1516 1516 1517 1517 1518 1519 1520 1522 1522 1523 1524 1526 1528 1528 1529 1529 1530 1530 1531 1531 1532 1532 1533 1533 1534 1534 1534 1535 1535
1446 1446 1446 1447 1448 1449 1450 1451 1452 1453 1454 1455 1456 1458 1459 1461 1463 1465 1467 1467 1468 1469 1471 1473 1474 1476 1477 1479 1480 1482 1483 1484 1485 1487 1488 1489 1491 1493 1495 1496 1497 1499 1500 1501 1503 1504 1505 1506 1507 1508 1509 1510 1511 1512 1512 1513 1514 1515 1516 1516 1516 1517 1518 1519 1521 1522 1523 1524 1525 1526 1527 1528 1529 1529 1530 1531 1531 1532 1532 1533 1533 1533 1533 1534 1534 1535 1535
1446 1446 1445 1446 1447 1448 1448 1449 1450 1451 1452 1453 1454 1456 1458 1460 1462 1463 1465 1465 1466 1468 1469 1471 1473 1475 1476 1478 1479 1481 1482 1483 1484 1486 1487 1489 1491 1493 1494 1495 1496 1498 1499 1501 1502 1504 1505 1506 1507 1508 1509 1510 1511 1512 1512 1514 1515 1516 1516 1516 1516 1517 1518 1519 1521 1522 1523 1524 1525 1526 1527 1528 1529 1530 1531 1531 1532 1532 1532 1533 1533 1533 1533 1533 1534 1534 1535
1446 1445 1445 1445 1446 1447 1447 1448 1449 1450 1451 1452 1453 1455 1456 1458 1460 1461 1462 1463 1464 1466 1468 1470 1472 1473 1475 1477 1478 1479 1481 1482 1483 1485 1487 1488 1490 1492 1493 1494 1495 1497 1499 1500 1502 1504 1505 1506 1507 1508 1509 1510 1511 1512 1513 1514 1515 1516 1516 1516 1517 1517 1518 1519 1521 1522 1523 1524 1525 1526 1527 1528 1529 1530 1531 1532 1532 1532 1532 1533 1533 1533 1533 1533 1533 1534 1535
1445 1445 1445 1445 1445 1446 1447 1447 1448 1448 1449 1450 1452 1453 1455 1456 1458 1459 1460 1461 1462 1464 1466 1469 1470 1472 1474 1476 1477 1478 1479 1481 1482 1484 1486 1487 1489 1490 1492 1493 1495 1497 1499 1500 1502 1504 1505 1506 1507 1507 1508 1509 1511 1512 1513 1515 1516 1516 1516 1516 1517 1518 1519 1520 1521 1522 1523 1525 1526 1527 1528 1529 1530 1531 1531 1532 1532 1532 1533 1533 1533 1533 1533 1533 1533 1534 1534
1445 1444 1445 1445 1445 1446 1446 1447 1447 1448 1449 1450 1451 1452 1454 1455 1456 1457 1458 1459 1461 1463 1465 1467 1469 1471 1473 1474 1476 1477 1479 1480 1482 1483 1484 1485 1486 1488 1490 1492 1494 1496 1498 1499 1501 1503 1504 1505 1505 1507 1508 1509 1510 1512 1513 1515 1516 1516 1516 1517 1518 1519 1520 1521 1522 1523 1524 1525 1526 1527 1528 1529 1530 1531 1531 1532 1532 1533 1533 1533 1533 1533 1533 1533 1533 1533 1533
1444 1444 1444 1444 1445 1445 1446 1446 1447 1448 1449 1450 1450 1451 1453 1454 1455 1456 1457 1459 1460 1462 1464 1466 1468 1470 1471 1473 1475 1477 1478 1480 1481 1483 1484 1484 1486 1487 1489 1491 1493 1495 1497 1499 1500 1502 1503 1503 1504 1506 1508 1509 1510 1511 1513 1515 1515 1516 1516 1517 1518 1519 1520 1521 1522 1523 1524 1525 1527 1528 1528 1529 1530 1531 1531 1532 1532 1533 1533 1533 1533 1533 1533 1533 1533 1533 1533
1443 1443 1443 1444 1444 1445 1445 1445 1446 1446 1447 1448 1449 1450 1451 1453 1454 1455 1457 1458 1460 1462 1464 1465 1467 1468 1470 1472 1474 1476 1477 1479 1481 1482 1484 1485 1486 1487 1489 1491 1492 1494 1496 1498 1499 1500 1501 1502 1503 1505 1507 1508 1509 1511 1513 1514 1515 1516 1516 1517 1518 1519 1520 1521 1522 1523 1525 1525 1526 1527 1528 1530 1530 1531 1531 1532 1532 1532 1532 1533 1533 1533 1533 1533 1533 1533 1533
1442 1442 1442 1443 1443 1444 1444 1444 1445 1446 1447 1448 1448 1450 1451 1452 1453 1455 1457 1458 1460 1462 1463 1465 1466 1468 1469 1471 1473 1475 1476 1478 1480 1482 1483 1484 1485 1487 1488 1490 1492 1493 1495 1496 1497 1498 1499 1501 1502 1504 1505 1507 1509 1511 1513 1514 1515 1515 1516 1517 1518 1519 1520 1521 1522 1524 1524 1525 1526 1527 1528 1529 1530 1531 1531 1531 1532 1532 1532 1533 1533 1533 1533 1533 1533 1534 1534
1441 1441 1441 1442 1442 1443 1443 1444 1445 1445 1446 1447 1448 1449 1451 1452 1453 1455 1457 1458 1460 1461 1463 1464 1466 1467 1469 1470 1472 1474 1476 1478 1479 1480 1482 1483 1485 1486 1488 1489 1491 1492 1494 1495 1496 1497 1498 1500 1501 1503 1504 1506 1508 1510 1512 1513 1514 1515 1516 1517 1518 1519 1520 1521 1522 1523 1524 1525 1526 1527 1528 1529 1530 1530 1531 1531 1532 1532 1532 1533 1533 1533 1534 1534 1534 1534 1535
1440 1440 1440 1441 1441 1442 1442 1443 1444 1445 1446 1447 1448 1448 1449 1451 1453 1454 1456 1457 1458 1460 1462 1463 1465 1467 1468 1470 1472 1473 1475 1477 1478 1480 1481 1482 1484 1485 1487 1488 1490 1491 1493 1495 1496 1496 1497 1498 1500 1501 1503 1505 1507 1509 1511 1512 1513 1514 1515 1516 1517 1519 1519 1520 1521 1522 1523 1524 1525 1526 1527 1528 1529 1530 1530 1531 1531 1531 1532 1532 1533 1533 1533 1534 1534 1535 1535
1439 1439 1439 1439 1440 1440 1441 1442 1443 1444 1444 1445 1446 1447 1448 1449 1451 1453 1454 1456 1457 1458 1460 1462 1464 1466 1468 1470 1471 1472 1474 1476 1478 1479 1481 1482 1484 1485 1486 1488 1489 1490 1492 1493 1495 1496 1496 1497 1499 1500 1502 1504 1506 1508 1509 1511 1512 1513 1514 1515 1517 1517 1518 1519 1520 1521 1522 1523 1524 1525 1526 1527 1528 1528 1529 1530 1530 1530 1531 1532 1532 1532 1533 1534 1535 1535 1535
1437 1437 1437 1438 1438 1439 1439 1440 1441 1442 1442 1444 1445 1445 1446 1448 1450 1452 1453 1454 1456 1457 1458 1460 1463 1465 1467 1468 1470 1471 1473 1475 1477 1479 1480 1482 1483 1484 1485 1487 1488 1489 1491 1492 1494 1495 1496 1497 1498 1499 1501 1504 1506 1507 1508 1509 1511 1512 1513 1514 1516 1517 1517 1518 1519 1520 1521 1522 1523 1524 1525 1525 1526 1527 1528 1528 1529 1529 1530 1531 1531 1532 1532 1534 1534 1535 1535